Location: ???????
(55.4362°N, 38.1183°E)
Time: 16:25:44
(UTC+00:00)

Cosmos 2333 Rocket - Pass Details

Date: 24 October 2021
Orbit: 837 x 865 km, 70.8° (Epoch: 04 December)

Event Time Altitude Azimuth Distance (km) Brightness Sun altitude
Exits shadow 03:25:10 - 320° (NW) 3,365 4.9 -7.8°
Reaches altitude 10° 03:27:50 10° 308° (NW) 2,509 4.1 -7.4°
Maximum altitude 03:32:17 24° 257° (WSW) 1,731 3.3 -6.8°
Drops below altitude 10° 03:36:44 10° 206° (SSW) 2,503 4.5 -6.2°
Sets 03:39:38 0° 193° (SSW) 3,436 5.4 -5.8°
